Starlink 31411

operational
NORAD ID: 59182 Int'l Des: 2024-045 Owner: SPXS Country: US Constellation: starlink
LEOCIRCULAR

Starlink 31411について

説明を読み込み中...

リアルタイム位置

3D地球を読み込み中...

次回通過

高度履歴

Altitude vs Time

uPlot chart will show altitude changes over time

軌道要素

1 59182U 24045E 25343.05701992 -.00001726 00000-0 -53190-4 0 9990
2 59182 43.0048 244.1051 0001488 259.5089 100.5595 15.27586460 99302
Epoch: Dec 9, 2025 • Age: 10 hours

現在のステータス

高度 482.6 km
速度 7.63 km/s
衛星直下点 17.93°N, 151.31°E
打ち上げ日 Mar 11, 2024
運用期間 1.7 years
タイプ internet

技術仕様

分類 Payload
質量 730.00 kg
乾燥質量 700.00 kg
総質量 730.00 kg
長さ 0.30 m
直径 4.10 m
スパン 29.00 m
形状 Box + pan
製造者 SPXS
バスタイプ Starlink V2M
フェーズステータス In Orbit
所有者/国 SPXS/US

大規模コンステレーション

Loading constellations...